Location: Unspecified
(41.5516°N, 88.1098°W)
Time: 03:12:33
(UTC-05:00)

Cosmos 1674 - Visible Passes

Search period start: 22 September 2014 00:00
Search period end: 02 October 2014 00:00
Orbit: 514 x 542 km, 82.5° (Epoch: 21 September)

Date Brightness Start Highest point End Pass type
(mag) Time Alt. Az. Time Alt. Az. Time Alt. Az.
22 Sep 4.7 20:17:25 10° NNE 20:18:47 16° NE 20:18:47 16° NE visible
22 Sep 5.5 21:52:50 10° NNW 21:54:04 17° NW 21:54:04 17° NW visible
23 Sep 4.6 20:06:29 10° NNE 20:08:05 16° NE 20:08:05 16° NE visible
23 Sep 5.2 21:41:42 10° NNW 21:43:22 21° NW 21:43:22 21° NW visible
24 Sep 4.6 19:55:34 10° NNE 19:57:25 16° ENE 19:57:25 16° ENE visible
24 Sep 4.9 21:30:35 10° NNW 21:32:43 26° NW 21:32:43 26° NW visible
25 Sep 4.5 19:44:40 10° NE 19:46:48 15° ENE 19:46:48 15° ENE visible
25 Sep 4.5 21:19:28 10° NNW 21:22:06 32° WNW 21:22:06 32° WNW visible
26 Sep 4.6 19:33:47 10° NE 19:35:54 14° ENE 19:36:14 14° ENE visible
26 Sep 4.1 21:08:20 10° NNW 21:11:32 39° WNW 21:11:32 39° WNW visible
27 Sep 4.6 19:22:57 10° NE 19:24:47 13° ENE 19:25:45 12° E visible
27 Sep 3.7 20:57:13 10° NNW 21:01:01 46° W 21:01:03 46° W visible
28 Sep 4.7 19:12:10 10° NE 19:13:39 12° ENE 19:15:08 10° E visible
28 Sep 3.5 20:46:06 10° NNW 20:49:57 51° W 20:50:39 44° SW visible
29 Sep 3.4 20:34:58 10° NNW 20:38:52 56° W 20:40:22 33° SSW visible
30 Sep 3.2 20:23:51 10° NNW 20:27:47 62° W 20:30:14 21° S visible
01 Oct 3.1 20:12:43 10° NNW 20:16:41 68° W 20:20:21 12° S visible
